User: anonymous   Login
Location: Chequamegon National Forest
(46.1070°N, 90.8420°W)
Time: 10:18:58
(UTC-06:00)
Language:

ISS - Orbit

View from above orbital plane
View from above orbital plane
View from above satellite
View from above satellite

Ground track
Ground track

The orbit data is extracted from the following two-line orbital elements,

1 25544U 98067A   15028.60398470  .00011007  00000-0  17598-3 0  7937
2 25544 051.6468 061.0011 0005554 315.0479 187.9549 15.53689174926312
Epoch (UTC): 28 January 2015 14:29:44
Eccentricity: 0.0005554
inclination: 51.6468°
perigee height: 402 km
apogee height: 410 km
right ascension of ascending node: 61.0011°
argument of perigee: 315.0479°
revolutions per day: 15.53689174
mean anomaly at epoch: 187.9549°
orbit number at epoch: 92631

The dashed part of the orbit path shows where the satellite is in the earth's shadow,  

DLR